Regional Weather Roundup
Issued by NWS Midland/Odessa, TX

Skip options and go directly to product.
Home | Oldest Version | Previous Version | Current Version | All | Text Only | Save Text | Print | Product List | Glossary On

Skip product version selection by date and time.   
582
ASUS44 KMAF 261210
RWRMAF
MIDLAND AREA WEATHER ROUNDUP
NATIONAL WEATHER SERVICE MIDLAND TX
700 AM CDT TUE JUL 26 2016

...IN SOUTHWEST TEXAS AND SOUTHEAST NEW MEXICO...

CITY           SKY/WX    TMP DP  RH WIND       PRES   REMARKS
ALPINE         CLOUDY    70  55  58 W5        30.20R
ANDREWS        FAIR      73  60  63 CALM      30.10S
ARTESIA        CLOUDY    70  66  88 N6        30.16S
BIG SPRING     MOCLDY    78  66  66 CALM      30.07R
CARLSBAD       CLEAR     73  62  68 N14       30.12S
DRYDEN           N/A     76  69  79 E6        29.99R
FORT STOCKTON  CLOUDY    76  60  57 SE6       30.04R
GUAD PASS      CLEAR     70  56  61 NE28      30.23R
HOBBS          PTCLDY    72  59  64 NW9       30.14S
MARFA          CLOUDY    68  54  60 N6        30.19R
MIDLAND AIRPK  CLEAR     78  64  62 N5        30.07S
MIDLAND INTL   CLEAR     77  63  61 N7        30.06R
ODESSA         CLEAR     76  62  62 NE9       30.08R
PECOS          CLOUDY    81  59  48 N7        30.03R
PRESIDIO       FAIR      81  57  44 N7        30.00R
SEMINOLE       CLEAR     71  60  69 N6        30.12R
SNYDER           N/A     75  69  79 CALM      30.05R
WINK           CLEAR     78  60  53 NE10      30.05R
$$
...OTHER STATIONS IN TEXAS...

CITY           SKY/WX    TMP DP  RH WIND       PRES   REMARKS
ABILENE        CLEAR     72  67  84 MISG      30.01R
AMARILLO       CLEAR     66  60  81 W7        30.13R
AUSTIN         CLOUDY    76  74  93 NE9       29.95R
BROWNSVILLE    CLEAR     81  76  84 S9        29.87R
CORPUS CHRISTI MOCLDY    80  77  90 CALM      29.89R
DALLAS FTW     MOCLDY    79  72  79 CALM      29.96R
DEL RIO        PTCLDY    76  70  82 E3        29.92R
EL PASO        PTCLDY    76  60  57 N18       30.12R
HOUSTON INT    FOG       78  76  93 E5        29.93S VSB 1/4
LUBBOCK        CLOUDY    70  62  76 N7        30.11R
SAN ANGELO     CLEAR     70  65  84 NE3       30.00R
SAN ANTONIO    CLOUDY    75  72  90 CALM      29.93S
WACO           CLEAR     74  72  93 E5        29.96R FOG
WICHITA FALLS  NOT AVBL
$$
...OTHER LOCATIONS IN NEW MEXICO...

CITY           SKY/WX    TMP DP  RH WIND       PRES   REMARKS
ALAMAGORDO     MOCLDY    77  55  47 SE5       30.15S
ALBUQUERQUE    CLOUDY    71  59  65 N10       30.27R
CANNON AFB     CLOUDY    67  63  86 NW8       30.20R
CLOVIS         CLOUDY    66  57  72 NW6       30.19R
HOLLOMAN AFB   CLOUDY    75  58  55 NW16      30.15R
ROSWELL        CLOUDY    71  62  73 N7        30.14F
RUIDOSO          N/A     59  55  88 SW6       30.38S
SANTA FE       CLOUDY    62  57  83 CALM      30.33S
TRUTH OR CONSE MOCLDY    71  61  70 N3        30.20S
TUCUMCARI      PTCLDY    67  63  87 SW6       30.17S
$$

USA.gov is the U.S. government's official web portal to all federal, state and local government web resources and services.